Bigfork, MN

6:01 AM CST on February 10, 2016 (GMT -0600)
Bigfork Municipal

Weather History for KFOZ - March, 2013

Change the Weather History Date:

Thursday, March 14, 2013

  Actual Average (KGPZ) Record (KGPZ)
Temperature  
Mean Temperature 28 °F -  
Max Temperature 39 °F 36 °F 60 °F (2012)
Min Temperature 17 °F 15 °F -17 °F (1932)
Degree Days  
Heating Degree Days 37    
Moisture  
Dew Point 21 °F    
Average Humidity 72    
Maximum Humidity 80    
Minimum Humidity 59    
Precipitation  
Precipitation 0.00 in - - ()
Sea Level Pressure  
Sea Level Pressure 30.04 in    
Wind  
Wind Speed 3 mph (SSW)    
Max Wind Speed 10 mph    
Max Gust Speed -    
Visibility 10 miles    
Events      
Averages and records for this station are not official NWS values.
T = Trace of Precipitation, MM = Missing Value Source: NWS Daily Summary

Daily Weather History Graph

Daily Weather History Graph

Search for Another Location

Airport or City:

Trip Planner

Search our weather history database for the weather conditions in past years. The results will help you decide how hot, cold, wet, or windy it might be!

Date:

Astronomy

Mar. 14, 2013 Rise Set
Actual Time 7:29 AM CDT 7:19 PM CDT
Civil Twilight 6:58 AM CDT 7:49 PM CDT
Nautical Twilight 6:22 AM CDT 8:25 PM CDT
Astronomical Twilight 5:45 AM CDT 9:02 PM CDT
Moon 8:28 AM CDT (3/14) 10:54 PM CDT (3/14)
Length of Visible Light 12h 51m
Length of Day
11h 49m
Waxing Crescent, 9% of the Moon is Illuminated
Mar 14
Waxing Crescent
Mar 19
First Quarter
Mar 27
Full
Apr 2
Last Quarter
Apr 10
New

Hourly Weather History & Observations

Time (CDT) Temp. Windchill Dew Point Humidity Pressure Visibility Wind Dir Wind Speed Gust Speed Precip Events Conditions
12:33 AM 17.6 °F - 10.4 °F 73% 30.14 in 10.0 mi Calm Calm - N/A   Overcast
12:53 AM 21.2 °F - 12.2 °F 68% 30.13 in 10.0 mi Calm Calm - N/A   Overcast
1:13 AM 19.4 °F 14.3 °F 12.2 °F 74% 30.13 in 10.0 mi South 3.5 mph - N/A   Overcast
1:33 AM 21.2 °F 16.4 °F 12.2 °F 68% 30.13 in 10.0 mi South 3.5 mph - N/A   Overcast
1:53 AM 21.2 °F 16.4 °F 12.2 °F 68% 30.13 in 10.0 mi South 3.5 mph - N/A   Overcast
2:13 AM 23.0 °F - 14.0 °F 68% 30.12 in 10.0 mi Calm Calm - N/A   Overcast
2:33 AM 23.0 °F 18.4 °F 14.0 °F 68% 30.12 in 10.0 mi SE 3.5 mph - N/A   Overcast
2:53 AM 24.8 °F 19.1 °F 12.2 °F 59% 30.11 in 10.0 mi SSE 4.6 mph - N/A   Overcast
3:13 AM 23.0 °F 17.0 °F 14.0 °F 68% 30.10 in 10.0 mi South 4.6 mph - N/A   Overcast
3:33 AM 23.0 °F 15.8 °F 12.2 °F 63% 30.09 in 10.0 mi South 5.8 mph - N/A   Overcast
3:53 AM 19.4 °F 12.8 °F 12.2 °F 74% 30.09 in 10.0 mi South 4.6 mph - N/A   Scattered Clouds
4:13 AM 19.4 °F 12.8 °F 10.4 °F 68% 30.08 in 10.0 mi South 4.6 mph - N/A   Clear
4:33 AM 19.4 °F - 12.2 °F 74% 30.09 in 10.0 mi Calm Calm - N/A   Scattered Clouds
4:53 AM 17.6 °F - 12.2 °F 79% 30.09 in 10.0 mi Calm Calm - N/A   Scattered Clouds
5:13 AM 19.4 °F - 12.2 °F 74% 30.09 in 10.0 mi Calm Calm - N/A   Mostly Cloudy
5:33 AM 19.4 °F 14.3 °F 12.2 °F 74% 30.08 in 10.0 mi ESE 3.5 mph - N/A   Overcast
5:53 AM 19.4 °F - 14.0 °F 80% 30.09 in 10.0 mi Calm Calm - N/A   Overcast
6:13 AM 21.2 °F - 14.0 °F 74% 30.09 in 10.0 mi Calm Calm - N/A   Overcast
6:33 AM 21.2 °F - 14.0 °F 74% 30.10 in 10.0 mi Calm Calm - N/A   Overcast
6:53 AM 21.2 °F - 15.8 °F 80% 30.10 in 10.0 mi Calm Calm - N/A   Overcast
7:13 AM 21.2 °F 14.9 °F 14.0 °F 74% 30.08 in 10.0 mi SSE 4.6 mph - N/A   Overcast
7:33 AM 21.2 °F 14.9 °F 15.8 °F 80% 30.07 in 10.0 mi SSE 4.6 mph - N/A   Overcast
7:53 AM 21.2 °F 16.4 °F 15.8 °F 80% 30.07 in 10.0 mi SSE 3.5 mph - N/A   Overcast
8:13 AM 21.2 °F 13.6 °F 15.8 °F 80% 30.06 in 10.0 mi SSE 5.8 mph - N/A   Overcast
8:53 AM 23.0 °F 18.4 °F 17.6 °F 80% 30.07 in 10.0 mi South 3.5 mph - N/A   Overcast
9:13 AM 23.0 °F 15.8 °F 17.6 °F 80% 30.06 in 10.0 mi South 5.8 mph - N/A   Overcast
9:33 AM 24.8 °F 16.1 °F 17.6 °F 74% 30.05 in 10.0 mi South 8.1 mph - N/A   Overcast
9:53 AM 24.8 °F 16.9 °F 17.6 °F 74% 30.05 in 10.0 mi South 6.9 mph - N/A   Scattered Clouds
10:13 AM 26.6 °F 18.2 °F 19.4 °F 74% 30.04 in 10.0 mi SSW 8.1 mph - N/A   Scattered Clouds
10:33 AM 28.4 °F 19.7 °F 21.2 °F 74% 30.04 in 10.0 mi South 9.2 mph - N/A   Mostly Cloudy
10:53 AM 28.4 °F 19.7 °F 21.2 °F 74% 30.07 in 10.0 mi SW 9.2 mph - N/A   Overcast
11:13 AM 28.4 °F 22.2 °F 21.2 °F 74% 30.08 in 10.0 mi SSW 5.8 mph - N/A   Overcast
11:33 AM 28.4 °F 20.4 °F 23.0 °F 80% 30.08 in 10.0 mi SW 8.1 mph - N/A   Overcast
11:53 AM 28.4 °F 23.3 °F 23.0 °F 80% 30.08 in 10.0 mi SW 4.6 mph - N/A   Overcast
12:13 PM 30.2 °F 23.4 °F 23.0 °F 75% 30.07 in 10.0 mi South 6.9 mph - N/A   Overcast
12:33 PM 30.2 °F 22.6 °F 23.0 °F 75% 30.06 in 10.0 mi SSW 8.1 mph - N/A   Overcast
12:53 PM 30.2 °F 22.6 °F 24.8 °F 80% 30.04 in 10.0 mi SSW 8.1 mph - N/A   Overcast
1:13 PM 30.2 °F 24.3 °F 24.8 °F 80% 30.05 in 10.0 mi South 5.8 mph - N/A   Overcast
1:33 PM 32.0 °F 26.4 °F 24.8 °F 75% 30.04 in 10.0 mi South 5.8 mph - N/A   Overcast
1:53 PM 33.8 °F 29.6 °F 24.8 °F 70% 30.03 in 10.0 mi SSW 4.6 mph - N/A   Overcast
2:13 PM 33.8 °F 27.7 °F 24.8 °F 70% 30.02 in 10.0 mi South 6.9 mph - N/A   Overcast
2:33 PM 35.6 °F 28.6 °F 24.8 °F 65% 30.01 in 10.0 mi SSW 9.2 mph - N/A   Mostly Cloudy
2:53 PM 35.6 °F 28.0 °F 24.8 °F 65% 30.00 in 10.0 mi SSW 10.4 mph - N/A   Scattered Clouds
3:13 PM 37.4 °F 32.8 °F 26.6 °F 65% 30.00 in 10.0 mi SW 5.8 mph - N/A   Clear
3:33 PM 37.4 °F 31.4 °F 26.6 °F 65% 30.00 in 10.0 mi WSW 8.1 mph - N/A   Clear
3:53 PM 37.4 °F 31.4 °F 26.6 °F 65% 30.00 in 10.0 mi WSW 8.1 mph - N/A   Mostly Cloudy
4:13 PM 39.2 °F 33.0 °F 26.6 °F 61% 30.00 in 10.0 mi WSW 9.2 mph - N/A   Overcast
4:53 PM 37.4 °F 32.1 °F 26.6 °F 65% 29.98 in 10.0 mi WSW 6.9 mph - N/A   Overcast
5:13 PM 39.2 °F 35.0 °F 26.6 °F 61% 29.99 in 10.0 mi WSW 5.8 mph - N/A   Overcast
5:33 PM 37.4 °F 32.8 °F 26.6 °F 65% 29.98 in 10.0 mi SW 5.8 mph - N/A   Overcast
5:53 PM 37.4 °F 32.8 °F 26.6 °F 65% 29.98 in 10.0 mi SW 5.8 mph - N/A   Overcast
6:13 PM 37.4 °F 32.1 °F 28.4 °F 70% 29.98 in 10.0 mi WSW 6.9 mph - N/A   Overcast
6:33 PM 37.4 °F 33.8 °F 28.4 °F 70% 29.97 in 10.0 mi WSW 4.6 mph - N/A   Overcast
6:53 PM 37.4 °F - 28.4 °F 70% 29.97 in 10.0 mi Calm Calm - N/A   Overcast
7:13 PM 37.4 °F - 26.6 °F 65% 29.97 in 10.0 mi Calm Calm - N/A   Overcast
7:33 PM 37.4 °F - 26.6 °F 65% 29.98 in 10.0 mi Calm Calm - N/A   Overcast
7:53 PM 37.4 °F - 26.6 °F 65% 29.98 in 10.0 mi Calm Calm - N/A   Overcast
8:13 PM 35.6 °F 30.7 °F 26.6 °F 70% 29.98 in 10.0 mi NW 5.8 mph - N/A   Mostly Cloudy
8:33 PM 33.8 °F 30.8 °F 26.6 °F 75% 29.98 in 10.0 mi WNW 3.5 mph - N/A   Scattered Clouds
8:53 PM 33.8 °F - 26.6 °F 75% 29.98 in 10.0 mi Calm Calm - N/A   Scattered Clouds
9:13 PM 33.8 °F - 26.6 °F 75% 29.98 in 10.0 mi Calm Calm - N/A   Mostly Cloudy
9:33 PM 33.8 °F - 26.6 °F 75% 29.99 in 10.0 mi Calm Calm - N/A   Overcast
9:53 PM 33.8 °F - 26.6 °F 75% 29.98 in 10.0 mi Calm Calm - N/A   Overcast
10:13 PM 33.8 °F - 26.6 °F 75% 29.99 in 10.0 mi Calm Calm - N/A   Overcast
10:33 PM 33.8 °F 30.8 °F 26.6 °F 75% 30.00 in 10.0 mi NW 3.5 mph - N/A   Overcast
10:53 PM 33.8 °F 30.8 °F 26.6 °F 75% 29.99 in 10.0 mi NNW 3.5 mph - N/A   Overcast
11:13 PM 32.0 °F 26.4 °F 26.6 °F 80% 29.98 in 10.0 mi NNW 5.8 mph - N/A   Mostly Cloudy
11:33 PM 32.0 °F - 26.6 °F 80% 29.98 in 10.0 mi Calm Calm - N/A   Mostly Cloudy
11:53 PM 32.0 °F 28.7 °F 26.6 °F 80% 29.98 in 10.0 mi NNW 3.5 mph - N/A   Overcast